DMSP 5D-2 F13 DEB, 40409

Orbit data source: Space-Track

DMSP 5D-2 F13 DEB, 40409 is space debris in SSO originally from a launch on Fri, 24 Mar 1995 UTC launched from the Air Force Western Test Range (AFWTR). Debris objects in space refer to the collection of defunct objects orbiting the Earth. Examples of debris include non-operational satellites, rocket bodies, and fragments generated from explosions, collisions, or faulty payload assembly.

Loading next visibility...
Identifier
40409, 1995-015W
Orbit
SSO
Country
Flag of USUS
Related business
Manufacturer
Unknown
Mission
Spacecraft
Bus & Motor
Unknown
Mass
Unknown
Launch date (UTC)
1995-03-24 (31 years ago)
Launch vehicle
Unknown
Launch site
Air Force Western Test Range (AFWTR)
Object type
Payload
Rocket body
Debris
Shape & HBR
Unknown shape, 0.1 m
Radar Cross Section
Small (<0.1 m²)

Expand to show TLE details & history
Last TLE update: 22 hours ago

TLE from 22 hours ago
0 DMSP 5D-2 F13 DEB
1 40409U 95015W   25340.76808696  .00002425  00000-0  10339-2 0  9992
2 40409  98.7541   1.0148 0000756 217.5683 142.5444 14.26033798558327
Epoch: 2025-12-06T18:26Z
TLE epoch observation values (Epoch: 2025-12-06T18:26:02.713Z)
Latitude
-0.00001°
Longitude
8.71241°
Altitude
808.371 km
Speed
7.449 km/s
True Right ascension
00h 04m 03s
True Declination
0° 00' 00"
Sunlit
Object was in daylight at epoch
Visualization orbit readout
Latitude
Unknown
Longitude
Unknown
Altitude
Unknown
Speed
Unknown
Apparent Right ascension
Unknown
Apparent Declination
Unknown
Sunlit
N/A
Visualization observer readout
Local Sidereal Time
14:31:17
Azimuth
Unknown
Elevation
Unknown
Doppler factor
Unknown
Orbital elements
Apogee altitude
802.714 km
Perigee altitude
801.629 km
Semi-major axis
7,180.309 km
Eccentricity
0.00008
Inclination
98.7541°
RAAN
1.0148°
Arg. of periapsis
217.5683°
True anomaly
142.54967°
Mean anomaly
142.5444°
Eccentric anomaly
142.54703°
Mean motion
3.56721 °/min
Orbital period
100.92 mins
BSTAR
0.0010339
Loading maneuver chart data...
Computing Atmospheric mass density...

Documentation

Showing up to 5 results
|